2024/03/10 00:00:00,20.9,-1.7
2024/03/10 00:10:00,20.8,-1.8
2024/03/10 00:20:00,20.8,-2.1
2024/03/10 00:30:00,20.7,-1.6
2024/03/10 00:40:00,20.7,-2.1
2024/03/10 00:50:00,20.7,-1.9
2024/03/10 01:00:00,20.7,-2.2
2024/03/10 01:10:00,20.7,-2.1
2024/03/10 01:20:00,20.6,-2.4
2024/03/10 01:30:00,20.6,-2.2
2024/03/10 01:40:00,20.6,-2.6
2024/03/10 01:50:00,20.6,-2.6
2024/03/10 02:00:00,20.5,-2.4
2024/03/10 02:10:00,20.4,-2.6
2024/03/10 02:20:00,20.4,-3.3
2024/03/10 02:30:00,20.3,-3.4
2024/03/10 02:40:00,20.2,-3.6
2024/03/10 02:50:00,20.1,-3.9
2024/03/10 03:00:00,20.0,-4.0
2024/03/10 03:10:00,20.0,-4.2
2024/03/10 03:20:00,20.0,-4.4
2024/03/10 03:30:00,20.1,-4.7
2024/03/10 03:40:00,20.1,-4.6
2024/03/10 03:50:00,20.0,-4.7
2024/03/10 04:00:00,19.9,-4.8
2024/03/10 04:10:00,19.8,-4.8
2024/03/10 04:20:00,19.8,-4.8
2024/03/10 04:30:00,19.8,-4.8
2024/03/10 04:40:00,19.8,-4.6
2024/03/10 04:50:00,19.8,-4.9
2024/03/10 05:00:00,19.8,-4.8
2024/03/10 05:10:00,19.8,-4.7
2024/03/10 05:20:00,19.8,-4.5
2024/03/10 05:30:00,19.7,-4.2
2024/03/10 05:40:00,19.6,-4.1
2024/03/10 05:50:00,19.6,-4.5
2024/03/10 06:00:00,19.6,-4.2
2024/03/10 06:10:00,19.6,-4.7
2024/03/10 06:20:00,19.5,-4.8
2024/03/10 06:30:00,19.4,-4.6
2024/03/10 06:40:00,19.3,-4.1
2024/03/10 06:50:00,19.3,-3.9
2024/03/10 07:00:00,19.3,-3.7
2024/03/10 07:10:00,19.4,-3.4
2024/03/10 07:20:00,19.3,-3.2
2024/03/10 07:30:00,19.0,-3.3
2024/03/10 07:40:00,18.9,-2.5
2024/03/10 07:50:00,19.0,-0.9
2024/03/10 08:00:00,18.9, 1.8
2024/03/10 08:10:00,18.9, 3.4
2024/03/10 08:20:00,18.9, 7.0
2024/03/10 08:30:00,18.9,11.9
2024/03/10 08:40:00,19.0,13.9
2024/03/10 08:50:00,18.9, 5.7
2024/03/10 09:00:00,18.9, 6.2
2024/03/10 09:10:00,18.9,12.8
2024/03/10 09:20:00,18.9,16.4
2024/03/10 09:30:00,18.8, 8.8
2024/03/10 09:40:00,18.6, 8.3
2024/03/10 09:50:00,18.4, 4.6
2024/03/10 10:00:00,18.3, 8.1
2024/03/10 10:10:00,18.4, 9.3
2024/03/10 10:20:00,18.2, 6.7
2024/03/10 10:30:00,18.0, 5.3
2024/03/10 10:40:00,18.3, 7.0
2024/03/10 10:50:00,17.9, 5.7
2024/03/10 11:00:00,17.9, 7.1
2024/03/10 11:10:00,17.8, 5.1
2024/03/10 11:20:00,17.5, 4.0
2024/03/10 11:30:00,17.2, 7.0
2024/03/10 11:40:00,16.9, 5.7
2024/03/10 11:50:00,16.5, 6.1
2024/03/10 12:00:00,16.4, 5.3
2024/03/10 12:10:00,16.0, 5.2
2024/03/10 12:20:00,15.8, 3.1
2024/03/10 12:30:00,15.8, 7.9
2024/03/10 12:40:00,15.0, 7.4
2024/03/10 12:50:00,14.3, 4.2
2024/03/10 13:00:00,14.0, 3.7
2024/03/10 13:10:00,14.0, 6.8
2024/03/10 13:20:00,13.7, 6.4
2024/03/10 13:30:00,13.6, 7.2
2024/03/10 13:40:00,13.1, 5.3
2024/03/10 13:50:00,12.8, 4.8
2024/03/10 14:00:00,13.0, 5.4
2024/03/10 14:10:00,12.4, 4.7
2024/03/10 14:20:00,12.1, 4.2
2024/03/10 14:30:00,12.1, 4.5
2024/03/10 14:40:00,11.5, 3.4
2024/03/10 14:50:00,11.3, 2.6
2024/03/10 15:00:00,11.4, 3.3
2024/03/10 15:10:00,11.2, 4.1
2024/03/10 15:20:00,11.0, 3.9
2024/03/10 15:30:00,11.1, 4.0
2024/03/10 15:40:00,10.8, 4.4
2024/03/10 15:50:00,10.6, 4.6
2024/03/10 16:00:00,10.2, 4.8
2024/03/10 16:10:00, 9.8, 5.2
2024/03/10 16:20:00, 9.8, 4.3
2024/03/10 16:30:00, 9.6, 4.2
2024/03/10 16:40:00, 9.3, 3.1
2024/03/10 16:50:00, 9.1, 2.5
2024/03/10 17:00:00, 8.9, 2.3
2024/03/10 17:10:00, 9.0, 2.2
2024/03/10 17:20:00, 8.8, 1.6
2024/03/10 17:30:00, 8.6, 1.3
2024/03/10 17:40:00, 8.3, 1.1
2024/03/10 17:50:00, 8.2, 0.0
2024/03/10 18:00:00, 8.1, 0.2
2024/03/10 18:10:00, 8.0,-0.5
2024/03/10 18:20:00, 7.8,-0.7
2024/03/10 18:30:00, 7.7,-0.8
2024/03/10 18:40:00, 7.8,-1.0
2024/03/10 18:50:00, 7.8,-1.2
2024/03/10 19:00:00, 7.7,-1.2
2024/03/10 19:10:00, 7.6,-1.4
2024/03/10 19:20:00, 7.5,-1.1
2024/03/10 19:30:00, 7.5,-1.7
2024/03/10 19:40:00, 7.5,-1.6
2024/03/10 19:50:00, 7.4,-1.7
2024/03/10 20:00:00, 7.4,-1.7
2024/03/10 20:10:00, 7.3,-1.9
2024/03/10 20:20:00, 7.3,-1.4
2024/03/10 20:30:00, 7.3,-1.9
2024/03/10 20:40:00, 7.3,-1.8
2024/03/10 20:50:00, 7.3,-1.9
2024/03/10 21:00:00, 7.3,-2.0
2024/03/10 21:10:00, 7.2,-1.7
2024/03/10 21:20:00, 7.1,-1.8
2024/03/10 21:30:00, 7.1,-2.3
2024/03/10 21:40:00, 7.0,-1.9
2024/03/10 21:50:00, 7.0,-2.1
2024/03/10 22:00:00, 7.0,-2.1
2024/03/10 22:10:00, 7.0,-2.2
2024/03/10 22:20:00, 6.9,-2.3
2024/03/10 22:30:00, 6.9,-2.6
2024/03/10 22:40:00, 6.9,-2.1
2024/03/10 22:50:00, 6.9,-2.1
2024/03/10 23:00:00, 6.9,-2.6
2024/03/10 23:10:00, 6.9,-2.3
2024/03/10 23:20:00, 6.9,-2.3
2024/03/10 23:30:00, 6.9,-2.8
2024/03/10 23:40:00, 6.9,-2.2
2024/03/10 23:50:00, 6.8,-2.3
